STARLINK-33671, 63320

Orbit data source: Space-Track

STARLINK-33671, 63320 is a payload satellite owned by SpaceX/Seattle (US) in LEO that was launched on Tue, 18 Mar 2025 UTC via an FALCON 9 launch vehicle from the Air Force Eastern Test Range (AFETR). Payload-class satellites include a variety of spacecraft equipped with specific instruments for various scientific and technological missions. These include communications satellites like Starlink; space stations such as the ISS; scientific satellites like the Hubble; Earth observation satellites from companies like Planet Labs, Umbra, and HawkEye 360; GPS; miniature CubeSats for education and research; and military/defense satellites.

Loading next visibility...
Identifier
63320, 2025-057P
Orbit
LEO
Last TLE update
16 hours ago
Origin
Manufacturer
SpaceX/Seattle
Mission
Operational Commercial Communications
Bus & Motor
STARLINK V2MO, Unknown motor
Mass
575 kg wet, ~530 kg dry
Launch date (UTC)
2025-03-18 (4 months ago)
Launch vehicle
FALCON 9
Launch site
Air Force Eastern Test Range (AFETR)
Object type
Payload
Rocket body
Debris
Shape & HBR
Box + 1 Pan, 29 m
Radar Cross Section
41.120 m², Large (>1 m²)

Expand to show TLE details & history

TLE from 16 hours ago
0 STARLINK-33671
1 63320U 25057P   25183.20433835  .00031009  00000-0  74643-3 0  9990
2 63320  43.0005 358.1378 0001602 264.7886  95.2788 15.40705317 17553
Epoch: 2025-07-02T04:54Z
TLE epoch observation values (Epoch: 2025-07-02T04:54:14.833Z)
Latitude
Longitude
4.0872°
Altitude
443.901 km
Speed
7.648 km/s
True Right ascension
23h 52m 33s
True Declination
0° 00' 00"
Sunlit
Object was in daylight at epoch
Visualization orbit readout
Latitude
24.8013°
Longitude
150.67991°
Altitude
444.39 km
Speed
7.649 km/s
Apparent Right ascension
12h 06m 39s
Apparent Declination
-34° 41' 33"
Sunlit
Object is in daylight
Visualization observer readout
Local Sidereal Time
08:48:45
Azimuth
141.273° SSE
Elevation
2.553°
Doppler factor
1
Orbital elements
Apogee altitude
447.076 km
Perigee altitude
444.889 km
Semi-major axis
6,824.12 km
Eccentricity
0.00016
Inclination
43.0005°
RAAN
358.1378°
Arg. of periapsis
264.7886°
True anomaly
Unknown
Mean anomaly
95.2788°
Eccentric anomaly
Unknown
Mean motion
3.85011 °/min
Orbital period
93.5 mins
BSTAR
0.00074643
Loading maneuver chart data...
Loading SW <> Apogee altitude chart data...
Loading historical data...
Loading historical data...
Loading historical data...
Loading historical data...
Loading historical data...
Loading historical data...
Loading historical data...

STARLINK-33671 Visibility forecast

Observer location: undefined°, undefined°

Span
Click to sort rows by Start time (UTC) header in descending order
Start Az.
Max El. time (UTC)
Max El. Az.
Max El.
End time (UTC)
End Az.
5 mins2025-07-03 15:22:37.219Z239.098° WSW2025-07-03 15:24:37.219Z209.887° SW40.656°2025-07-03 15:27:37.219Z76.444° E
5 mins2025-07-03 17:01:37.219Z290.818° WNW2025-07-03 17:03:37.219Z19.307° NNE36.804°2025-07-03 17:06:37.219Z72.484° E
5 mins2025-07-03 18:39:37.219Z295.489° NW2025-07-03 18:41:37.219Z19.007° NNE42.403°2025-07-03 18:44:37.219Z95.251° ESE
5 mins2025-07-03 20:17:37.219Z263.893° W2025-07-03 20:19:37.219Z205.411° SW29.866°2025-07-03 20:22:37.219Z143.116° SSE
|